CZ-3C DEB, 44527

Orbit data source: Space-Track

CZ-3C DEB, 44527 is space debris in HEO originally from a launch on Sun, 31 Oct 2010 UTC launched from the Xichang Space Center, China (XSC). Debris objects in space refer to the collection of defunct objects orbiting the Earth. Examples of debris include non-operational satellites, rocket bodies, and fragments generated from explosions, collisions, or faulty payload assembly.

Loading next visibility...
Identifier
44527, 2010-057BM
Orbit
HEO
Country
Flag of CNCN / PRC
Related business
Manufacturer
CALT
Mission
Spacecraft
Bus & Motor
Unknown
Mass
Unknown
Launch date (UTC)
2010-10-31 (16 years ago)
Launch vehicle
Unknown
Launch site
Xichang Space Center, China (XSC)
Object type
Payload
Rocket body
Debris
Shape & HBR
Unknown shape, 0.3 m
Radar Cross Section
Medium (>0.1 m² and <1 m²)

Expand to show TLE details & history
Last TLE update: 4 months ago

TLE from 4 months ago
0 CZ-3C DEB
1 44527U 10057BM  26150.80542836 -.00000159  00000-0  54309-3 0  9995
2 44527  20.4529  69.7559 7179733 213.8543  66.5398  2.23731052 78029
Epoch: 2026-05-30T19:19Z
TLE epoch observation values (Epoch: 2026-05-30T19:19:49.010Z)
Latitude
0.00012°
Longitude
-108.54654°
Altitude
23,282.735 km
Speed
3.276 km/s
True Right ascension
04h 38m 53s
True Declination
0° 00' 00"
Sunlit
Object was in daylight at epoch
Visualization orbit readout
Latitude
Unknown
Longitude
Unknown
Altitude
Unknown
Speed
Unknown
Apparent Right ascension
Unknown
Apparent Declination
Unknown
Sunlit
N/A
Visualization observer readout
Local Sidereal Time
08:06:32
Azimuth
Unknown
Elevation
Unknown
Doppler factor
Unknown
Orbital elements
Apogee altitude
36,052.249 km
Perigee altitude
587.339 km
Semi-major axis
24,697.931 km
Eccentricity
0.71797
Inclination
20.4529°
RAAN
69.7559°
Arg. of periapsis
213.8543°
True anomaly
146.0836°
Mean anomaly
66.5398°
Eccentric anomaly
106.06932°
Mean motion
0.55918 °/min
Orbital period
643.8 mins
BSTAR
0.00054309
Loading maneuver chart data...
Computing Atmospheric mass density...
Loading historical data...
Loading historical data...
Loading historical data...
Loading historical data...
Loading historical data...
Loading historical data...
Loading historical data...

Documentation

Showing up to 5 results
|